Location: Blairvadach
(56.2780°N, 6.9720°W)
Time: 20:41:13
(UTC+00:00)

Envisat - Pass Details

Date: 21 November 2019
Orbit: 764 x 766 km, 98.1° (Epoch: 08 December)

Event Time Altitude Azimuth Distance (km) Brightness Sun altitude
Rises 17:44:21 0° 152° (SSE) 3,225 6.1 -12.5°
Reaches altitude 10° 17:46:39 10° 150° (SSE) 2,303 5.3 -12.8°
Maximum altitude 17:51:41 66° 69° (ENE) 837 2.9 -13.5°
Drops below altitude 10° 17:56:44 10° 348° (NNW) 2,317 5.5 -14.2°
Sets 17:59:04 0° 346° (NNW) 3,248 6.3 -14.5°
